Wind_Speed
33 33 33 33 33 33 33 32 31 30 29 28 28 27 27 27 28 28 28 29 30 32 32 30 30 31 33 33 31 32 34 35 36 37 40 41 42 42 43 43 44 45 46 47 47 46 46 46 45 46 46 46 46 47 47 47 47 47 48 48 49 49 50 50 51 52 53 53 53 54 54 54 55 56 57 57 58 58 58 59 60 60 61 61 62 63 64 65
33 33 33 33 33 33 33 31 30 29 29 28 27 27 27 26 27 28 29 30 32 33 33 32 31 32 33 33 30 30 34 36 36 37 38 40 41 42 42 43 44 45 45 45 46 46 47 47 47 48 47 48 48 49 49 50 50 50 51 51 51 52 52 53 54 55 56 56 57 58 58 58 59 59 59 60 60 61 61 62 62 63 64 65 65 66 66 67
33 34 33 33 32 32 31 30 29 28 28 27 27 27 27 26 26 28 29 30 32 33 31 30 30 30 31 33 33 33 35 37 39 40 41 41 41 41 40 41 42 43 42 41 41 43 45 46 47 48 48 48 49 51 51 52 53 53 54 54 54 54 54 55 56 56 57 58 58 59 60 61 62 62 62 63 64 64 65 65 66 66 67 68 69 69 70 71
33 34 33 32 32 31 30 29 28 28 27 27 26 26 27 26 26 27 28 30 32 32 29 26 26 28 29 31 33 34 35 37 38 40 42 42 41 40 39 40 41 42 42 42 41 42 43 45 47 47 48 49 51 52 52 53 54 55 56 56 57 56 57 57 58 58 59 60 61 61 62 63 64 65 65 66 67 68 69 69 70 70 71 72 73 73 74 75
33 33 32 31 31 30 28 28 28 27 27 26 26 26 26 26 26 26 28 30 32 33 31 28 26 26 28 30 31 32 31 32 33 35 38 39 38 38 40 42 43 43 44 44 44 45 46 47 49 50 52 53 54 54 55 55 56 57 58 59 59 59 59 59 60 61 61 62 63 64 65 66 67 67 68 68 69 70 71 72 73 74 74 75 76 76 77 78
32 31 31 30 29 28 27 27 26 26 26 25 25 25 25 26 26 27 28 30 32 34 35 35 33 33 33 33 33 34 32 32 33 34 37 38 38 40 40 41 43 45 47 48 50 51 52 53 54 56 57 58 58 58 59 60 60 60 61 62 62 62 63 63 63 64 65 66 67 68 69 70 70 71 71 72 73 74 74 75 76 77 78 78 79 80 81 81
31 30 30 28 27 27 26 26 26 25 25 24 25 25 25 26 27 27 28 29 32 35 37 39 39 40 40 41 41 41 40 39 39 40 43 46 47 47 47 47 49 51 53 55 56 57 57 59 60 62 64 64 64 63 63 62 60 59 60 60 61 62 63 64 64 65 66 67 68 69 69 70 71 72 73 73 74 75 75 75 76 76 77 78 79 80 81 82
30 29 28 26 26 25 25 25 25 24 24 24 24 24 24 26 26 27 28 30 31 33 36 40 41 43 44 45 46 46 46 46 46 47 49 52 53 53 54 55 56 57 57 58 60 61 62 63 64 64 65 65 64 63 61 60 59 58 58 57 58 59 60 61 62 63 64 65 65 66 67 68 69 70 71 72 73 74 74 75 75 76 77 78 79 80 81 82
28 28 26 25 24 24 24 24 23 23 23 23 23 23 24 25 26 27 28 29 31 32 35 39 42 44 45 46 47 48 49 49 49 50 52 54 55 56 57 58 59 59 59 59 60 61 62 62 62 61 60 60 59 58 58 58 59 59 60 60 61 62 63 64 65 66 67 68 69 70 72 72 73 74 75 77 78 79 79 80 81 81 82 84 84 85 86 86
27 26 24 24 23 23 23 22 22 21 22 22 23 23 23 24 25 26 27 29 30 32 34 37 42 44 44 46 47 49 51 51 52 54 55 55 56 57 58 58 57 57 58 58 58 58 59 58 58 57 57 58 59 59 59 60 62 63 65 65 66 68 69 70 71 72 73 75 76 78 79 79 80 81 82 84 84 85 86 86 87 88 89 89 90 91 91 92
25 24 23 23 22 22 22 21 21 20 21 22 22 22 22 23 24 25 26 27 29 31 33 36 40 43 44 45 45 47 49 51 52 55 56 56 56 56 57 57 57 57 57 58 58 59 59 60 60 61 62 63 64 64 65 67 68 70 71 72 73 74 76 77 78 79 80 81 82 83 83 83 84 85 86 86 87 87 88 89 90 90 91 92 93 93 94 95
23 22 22 22 21 21 21 20 20 20 20 21 21 21 22 22 23 23 24 26 27 30 32 35 38 42 46 47 47 48 50 50 52 54 55 56 56 57 58 58 59 60 60 61 62 63 64 65 67 68 69 71 72 73 74 75 76 77 78 78 79 80 80 81 81 81 81 80 80 80 79 80 81 82 82 82 83 83 84 85 86 87 88 89 89 90 91 92
22 22 21 21 20 20 19 19 19 19 19 20 20 20 21 21 22 22 23 24 26 28 30 33 36 39 44 48 50 52 54 54 55 56 57 58 59 60 61 62 63 65 66 67 68 69 70 71 72 73 74 75 76 76 76 76 76 76 76 76 76 76 75 75 75 75 74 74 74 74 73 75 77 77 77 77 78 79 80 81 82 83 83 84 85 86 87 88
21 20 20 20 19 19 18 18 18 18 18 19 20 20 21 21 22 22 22 23 25 26 28 30 32 35 38 42 46 49 53 55 57 58 60 61 62 63 64 65 66 67 67 68 69 70 70 71 71 71 71 71 71 70 70 70 69 70 70 69 69 69 69 70 70 70 71 71 72 73 72 74 76 76 76 77 77 78 78 79 80 81 81 82 83 84 84 85
20 19 19 19 18 18 18 17 17 17 18 19 20 20 20 21 21 22 22 23 25 26 27 28 30 32 34 36 39 42 45 47 50 52 54 55 57 58 59 60 60 61 62 62 62 63 63 63 63 63 64 64 64 64 64 64 65 66 66 66 67 68 68 69 70 71 71 71 72 72 71 72 74 73 73 73 73 74 74 75 75 76 77 77 78 79 80 81
19 18 18 18 18 17 17 16 16 17 18 19 19 20 20 21 21 22 23 24 25 26 26 27 29 30 31 33 35 36 38 40 42 44 46 47 49 50 51 52 53 54 55 55 56 57 58 58 59 60 61 61 62 63 63 64 65 66 66 67 68 68 68 68 69 68 68 67 67 67 65 66 67 66 66 67 67 67 68 69 69 70 71 72 73 74 75 76
18 17 17 17 17 17 16 16 16 17 17 18 19 20 21 21 22 23 23 24 25 25 26 27 28 29 30 31 33 35 36 38 40 42 43 44 45 46 48 49 50 52 53 54 55 56 57 58 59 60 61 62 63 64 64 64 65 65 65 64 64 63 63 62 61 61 60 59 59 59 58 60 61 60 61 62 62 63 64 65 66 67 68 69 70 71 72 73
17 17 17 17 16 16 15 15 16 17 18 19 20 21 22 22 23 24 24 25 25 25 26 27 28 29 30 32 34 35 37 39 41 42 44 45 46 47 48 49 51 52 53 55 56 56 58 59 60 61 61 61 61 61 60 60 59 58 57 56 56 55 54 54 53 54 54 53 53 54 54 56 58 57 58 60 60 62 63 64 65 66 67 68 70 71 72 73
16 17 17 16 15 15 15 15 16 17 18 20 21 22 23 24 24 24 24 25 25 25 26 28 29 30 32 34 36 37 39 41 43 44 45 46 47 48 49 50 51 52 54 55 56 57 57 57 57 57 56 55 54 54 53 52 51 50 49 49 48 48 48 49 49 49 50 50 51 52 52 55 57 57 58 60 61 62 64 64 65 66 67 69 70 71 72 73
16 16 16 15 15 14 14 15 16 17 19 21 22 23 24 24 24 24 24 25 25 26 27 29 31 32 34 36 38 39 41 43 44 45 46 47 48 49 50 50 51 51 52 52 53 52 52 51 50 49 48 48 47 46 46 45 45 44 44 44 45 45 46 47 47 48 49 50 52 52 53 56 58 58 58 60 61 63 64 64 66 67 68 69 70 72 74 75
16 16 15 15 14 14 14 15 16 19 20 21 22 23 24 24 24 24 25 25 26 28 29 31 33 35 37 38 40 41 42 44 45 46 46 47 48 48 49 49 49 48 47 47 46 45 45 45 44 44 43 43 42 42 42 42 42 42 42 43 43 44 45 46 47 49 50 51 53 53 54 58 59 59 60 61 63 64 65 66 68 69 70 71 72 74 75 76
16 15 15 14 14 14 14 16 18 20 20 22 23 23 23 24 24 25 26 26 28 30 31 34 36 38 39 40 42 43 43 44 44 45 46 46 47 47 47 46 45 43 42 42 41 41 41 40 40 40 39 39 39 39 40 40 41 41 41 42 43 44 45 47 49 50 52 53 55 55 57 61 61 60 62 63 64 66 65 66 68 68 69 70 71 71 72 72
15 14 14 13 14 14 16 18 19 20 21 22 23 23 23 24 24 25 27 28 30 32 34 37 38 40 41 42 43 43 43 43 44 44 45 45 45 44 42 41 40 40 39 38 38 37 37 37 37 37 37 37 38 38 39 39 40 40 41 42 44 46 47 50 51 53 55 55 56 56 58 63 61 58 61 62 63 64 63 64 65 64 65 65 66 66 66 66
15 14 13 14 14 16 17 18 19 20 22 23 23 23 23 24 25 27 29 31 33 35 37 39 40 41 42 42 42 42 42 43 43 44 44 43 41 39 38 37 37 37 36 35 35 35 35 35 35 36 36 37 37 37 38 38 39 40 41 43 46 48 49 51 52 54 55 55 54 54 56 61 59 54 56 58 59 60 58 59 59 58 59 59 60 60 60 61
15 14 14 14 16 17 18 19 20 21 22 22 22 22 24 25 27 29 31 33 35 37 39 41 41 42 42 42 42 42 43 43 43 43 41 38 37 36 35 35 34 34 33 33 33 33 34 34 35 35 35 35 35 36 36 37 39 41 43 45 47 48 49 49 50 50 51 50 50 49 50 55 53 49 50 51 52 52 51 50 50 50 50 50 51 51 51 52
15 14 14 15 17 18 18 19 21 21 21 21 22 23 25 27 29 31 33 36 38 39 41 42 42 42 42 42 43 43 43 44 42 40 37 35 34 34 33 33 32 32 31 32 32 32 33 33 33 33 34 34 34 35 36 38 40 42 43 44 45 45 45 45 45 46 46 44 44 44 44 47 46 42 42 44 44 44 43 43 42 41 41 42 42 43 43 44
15 14 15 16 17 17 18 20 21 21 20 21 23 25 27 29 31 33 36 38 39 41 42 42 42 42 42 43 43 43 43 42 39 36 34 33 33 32 32 31 31 31 31 31 31 32 32 32 32 32 33 33 34 35 37 39 40 41 41 41 41 41 41 41 41 41 41 39 38 38 38 41 40 35 35 37 37 38 38 38 37 36 36 36 38 39 40 41
15 15 15 16 16 18 19 19 20 19 20 22 25 27 29 32 34 36 38 39 41 41 42 42 42 42 43 43 43 43 42 39 36 34 33 33 32 31 31 30 30 30 31 31 31 31 31 31 32 32 33 34 35 36 37 38 38 38 38 38 37 37 36 36 36 37 36 34 33 33 34 36 35 31 31 33 33 34 36 37 38 37 36 35 35 36 36 37
15 15 15 15 17 18 18 18 18 19 22 24 27 29 32 34 36 38 39 40 42 42 42 42 42 43 43 43 43 42 39 36 34 33 32 32 31 30 30 30 30 30 30 31 31 31 31 31 31 32 33 34 35 36 36 36 35 35 34 33 33 33 32 32 33 35 35 35 33 33 33 34 35 31 29 30 28 29 33 35 36 37 37 37 37 37 37 37
15 15 15 16 17 17 17 17 19 21 23 26 29 32 34 36 37 39 40 41 42 42 41 42 42 42 43 43 42 39 36 33 32 32 31 31 30 30 29 29 30 30 30 31 31 31 31 31 31 32 34 35 35 34 34 33 32 31 30 30 31 31 31 31 32 33 35 36 36 36 35 35 35 31 29 26 23 25 30 32 34 35 36 38 39 41 41 41
15 14 15 16 16 16 16 18 20 22 25 28 31 34 36 37 38 40 41 41 41 41 41 42 42 42 43 42 39 36 33 32 32 31 30 30 29 29 29 29 29 30 30 30 31 30 30 31 32 33 34 34 34 33 32 30 29 29 29 29 30 31 32 32 33 33 35 37 37 37 37 37 36 30 27 25 22 25 30 32 35 37 37 39 40 42 44 44
14 14 15 15 15 15 17 19 21 24 27 30 33 35 36 38 39 40 40 40 40 40 41 41 42 42 41 39 36 33 32 32 31 30 30 29 29 29 29 29 30 30 30 30 30 31 31 31 32 33 33 33 32 32 31 29 28 29 29 29 30 30 31 32 33 34 35 38 40 40 40 41 40 33 28 27 25 26 31 35 37 39 39 40 42 44 45 46
13 14 15 15 14 16 18 20 23 27 30 32 34 35 37 39 40 39 39 39 40 41 41 41 41 40 38 35 33 32 32 31 31 30 29 29 29 29 29 29 30 30 30 30 30 31 31 32 32 32 32 32 31 30 30 29 28 28 28 28 29 29 29 30 31 32 34 37 41 43 43 43 44 40 34 32 30 28 32 37 40 41 41 41 43 45 46 47
13 14 13 13 14 17 19 22 25 29 31 32 34 36 38 38 38 38 38 39 40 41 41 41 40 38 36 33 32 32 31 31 30 30 29 29 29 29 29 29 30 30 30 30 30 31 32 32 32 32 32 31 31 30 30 29 28 28 27 27 28 28 28 28 29 30 31 35 40 43 45 45 45 44 40 39 37 34 35 39 42 45 44 44 46 47 48 49
12 12 12 13 15 18 21 24 27 30 31 33 35 37 38 38 38 38 38 39 40 41 41 40 38 36 34 32 32 32 31 31 31 29 29 29 29 29 29 30 30 30 30 30 31 31 32 33 32 32 32 32 32 31 30 30 29 28 27 27 27 28 29 28 29 30 28 32 39 43 47 48 48 47 45 43 43 41 41 43 46 48 48 48 49 50 52 53
11 12 12 14 17 19 23 26 28 30 32 34 36 37 37 38 38 38 38 39 41 41 41 39 37 35 33 32 32 32 31 31 31 30 29 29 29 29 29 30 31 31 31 31 32 32 32 33 33 33 33 32 33 33 32 32 31 31 29 28 28 29 30 29 30 31 29 31 37 42 48 50 49 50 51 48 47 47 47 50 52 53 53 53 53 54 56 57
11 12 13 16 18 22 25 27 28 30 33 35 36 37 38 38 37 37 39 40 41 41 40 38 36 34 33 32 32 32 32 32 31 31 30 29 29 29 30 30 31 31 32 32 32 33 33 33 33 33 33 33 34 34 34 35 34 33 32 31 30 31 32 32 32 32 30 30 35 41 50 53 49 50 54 53 52 52 54 56 57 58 58 57 58 57 57 58
11 12 15 17 21 24 26 27 29 32 34 35 37 37 37 37 37 38 39 40 40 41 40 38 36 34 33 32 32 32 32 32 32 32 31 31 30 30 30 31 31 32 32 33 34 34 35 35 35 34 34 35 35 35 36 37 37 37 36 34 33 33 34 35 36 35 32 30 32 37 50 57 51 51 55 54 53 54 56 59 60 60 60 59 59 59 60 60
11 14 16 20 23 25 26 28 30 33 35 36 37 37 37 37 37 38 38 39 40 40 40 38 36 34 33 33 33 33 32 32 32 33 33 32 32 32 32 32 32 32 33 33 35 35 36 37 37 37 36 36 37 37 38 39 40 40 39 38 37 35 35 37 40 41 38 35 32 32 46 58 54 53 56 54 53 55 57 59 60 60 60 60 61 62 62 63
13 15 18 22 24 25 27 29 32 34 35 36 36 37 37 37 37 37 38 38 39 40 40 39 37 35 34 33 33 33 33 32 33 33 33 33 33 33 33 33 33 34 34 34 35 36 37 38 39 40 39 39 39 39 40 42 43 43 42 41 39 37 37 37 41 45 45 43 37 32 43 58 57 56 58 56 54 57 58 59 61 61 62 62 62 63 64 65
14 17 20 23 25 26 28 31 33 34 35 36 36 37 37 37 37 37 38 38 39 39 39 39 38 36 35 33 33 33 33 33 33 33 33 33 34 34 34 35 35 35 36 36 36 37 38 38 40 41 42 41 41 41 42 44 46 47 47 46 43 40 38 38 40 45 48 50 47 38 43 57 60 59 61 58 56 59 60 61 62 62 63 63 63 64 64 65
16 19 22 24 25 27 29 32 34 34 35 36 36 36 37 37 37 37 38 38 39 40 40 39 38 37 36 35 34 33 33 33 33 33 33 33 34 35 35 36 37 37 37 38 38 38 39 39 40 43 44 44 44 44 44 45 48 50 51 50 48 44 42 40 41 44 48 53 53 47 46 54 60 61 63 60 58 60 62 62 63 63 64 64 63 64 65 66
18 20 23 25 26 28 31 33 34 35 35 36 36 36 36 36 37 37 38 38 39 40 40 40 39 38 37 36 35 34 34 34 33 33 33 34 34 35 36 36 37 38 38 39 40 40 41 41 41 43 46 47 47 47 46 48 50 53 55 55 53 49 46 44 44 45 49 54 56 53 49 52 58 62 64 61 60 61 64 65 65 65 65 65 64 65 66 67
19 22 24 26 27 30 32 34 34 35 36 36 36 36 36 36 36 37 38 39 40 41 41 41 41 40 38 37 35 34 33 33 34 34 34 34 35 35 36 37 37 38 39 40 40 41 43 43 42 42 45 48 50 50 50 51 53 55 58 60 58 54 50 47 47 49 51 53 57 58 54 51 57 64 64 62 62 63 65 67 67 67 66 66 66 67 68 69
20 23 26 27 28 31 33 34 35 35 36 36 36 36 36 36 37 37 38 39 40 41 42 42 42 41 40 39 37 36 35 33 33 34 34 35 35 35 36 37 37 38 39 39 40 41 43 45 44 44 45 47 48 49 50 51 54 57 61 63 61 57 53 51 51 53 54 53 55 61 59 52 56 66 66 64 65 64 66 68 70 70 69 67 67 68 70 72
22 24 27 28 30 33 34 35 35 35 36 37 37 36 36 37 37 37 38 39 40 42 43 43 43 43 42 41 40 39 38 37 35 35 35 35 35 36 36 37 37 38 38 39 39 40 42 44 45 45 47 48 48 49 49 51 54 58 63 65 63 59 56 55 54 56 58 55 53 61 63 54 55 64 65 65 67 66 67 68 70 71 71 69 69 70 72 74
23 26 28 29 31 34 35 35 35 36 36 37 37 36 37 37 37 38 38 39 41 42 43 43 43 43 43 43 42 42 41 40 39 38 37 37 36 37 37 37 38 38 38 39 39 39 40 43 44 45 47 49 48 49 50 51 54 58 63 66 64 61 58 57 57 59 61 58 55 59 63 59 58 62 63 65 67 66 67 69 70 71 71 71 71 73 75 76
25 27 28 30 32 35 36 36 36 36 37 37 37 37 37 37 38 38 39 40 41 42 43 43 43 43 43 43 43 43 43 42 42 42 41 40 39 38 39 38 39 39 39 39 39 39 39 41 43 43 46 49 48 47 49 50 52 57 63 65 64 61 59 58 58 61 63 61 59 59 60 61 63 64 63 65 67 66 66 68 70 72 73 72 73 75 77 78
26 29 29 31 33 35 36 36 36 37 37 37 37 37 37 38 38 38 39 40 41 42 42 43 43 43 43 43 43 43 43 43 43 43 43 42 41 41 40 40 40 40 40 40 40 40 39 40 41 41 43 48 48 47 47 48 50 56 62 65 63 60 59 58 59 63 65 63 62 61 59 61 66 66 64 65 67 66 66 68 71 74 75 75 75 77 79 80
28 30 30 32 34 36 37 37 37 37 38 38 37 37 37 38 38 38 39 40 41 42 42 42 43 42 42 43 43 43 44 44 43 43 43 44 43 42 41 41 41 41 41 40 40 41 40 39 40 39 40 45 47 45 46 47 50 55 61 64 63 61 59 59 61 63 65 64 63 63 61 61 65 67 66 66 67 66 67 70 73 77 77 77 77 80 82 83
29 31 32 33 35 37 38 37 38 38 38 38 37 37 37 38 38 38 39 40 41 42 42 42 42 42 41 42 43 43 43 44 44 44 44 45 45 44 43 42 42 41 41 41 40 41 41 40 39 38 37 41 44 43 44 45 49 56 61 62 62 61 58 59 61 64 65 65 63 63 62 63 64 65 66 67 67 68 69 73 77 79 78 78 80 81 83 84
31 32 33 34 36 38 38 38 38 39 39 38 37 37 38 38 38 39 39 40 41 41 42 42 42 42 41 41 42 43 44 44 44 45 45 45 46 46 45 45 44 43 43 42 41 41 42 41 41 40 38 40 43 42 42 44 48 55 61 61 60 59 57 57 60 64 66 66 64 62 63 65 66 66 66 67 68 70 72 76 80 81 79 79 81 83 84 85
Wind_Direction
258 261 262 262 260 260 259 259 259 258 257 255 253 251 249 250 252 252 250 249 249 248 248 248 249 249 251 253 254 257 258 256 256 253 251 252 253 255 257 259 260 261 262 262 262 263 264 264 264 264 265 266 267 267 267 267 267 267 267 267 267 266 266 265 264 264 264 264 265 265 265 266 266 267 268 268 269 269 269 269 270 270 270 271 271 271 272 272
259 261 259 257 257 257 257 258 257 256 256 255 253 251 250 250 251 252 252 251 250 250 250 249 248 247 250 251 250 255 260 260 260 258 254 252 254 256 258 260 262 263 264 266 266 265 265 265 265 265 265 266 267 267 267 267 267 267 267 267 267 267 267 267 266 265 265 265 265 265 265 265 266 266 266 266 267 267 267 267 267 267 267 267 268 268 268 268
259 257 255 254 254 254 256 256 256 255 254 254 254 253 252 251 251 252 254 253 253 254 255 255 252 249 250 249 244 246 253 257 260 261 260 258 260 263 261 263 265 264 265 267 268 266 265 265 265 265 265 266 266 265 265 265 265 265 265 265 265 265 265 265 266 266 266 266 266 266 266 266 266 266 266 266 266 266 266 266 266 266 265 265 265 265 265 265
254 252 252 253 253 253 254 254 254 254 253 252 251 252 253 254 253 253 254 254 254 255 255 257 259 257 255 255 252 248 251 257 261 263 263 262 264 266 266 269 271 269 268 269 269 268 266 265 265 265 265 267 268 267 267 267 267 267 267 266 266 265 264 264 264 264 265 265 265 265 265 265 265 266 266 266 267 267 267 267 267 267 267 267 266 266 266 266
248 249 250 251 252 253 253 253 253 253 253 253 252 252 254 255 254 253 251 251 251 252 252 248 248 251 254 258 260 260 261 265 267 268 266 266 269 271 272 275 277 276 276 275 274 273 271 269 267 267 268 270 270 269 269 270 270 270 270 269 269 268 267 267 267 267 266 267 267 267 267 267 267 267 267 268 268 268 268 268 268 268 269 269 268 268 268 268
244 246 248 250 252 253 253 252 252 253 253 254 255 256 256 257 256 255 252 250 248 247 249 247 243 241 242 244 249 253 255 256 258 260 262 266 271 273 272 271 272 274 275 275 275 274 274 273 273 273 274 275 275 273 272 272 273 272 272 271 270 270 269 269 269 269 269 269 270 270 270 270 271 271 271 271 271 271 270 270 270 270 270 270 270 270 270 269
241 244 247 248 250 251 252 252 252 252 253 255 257 258 259 259 259 259 256 253 250 247 246 247 248 248 247 247 249 252 253 254 254 254 258 265 270 271 269 268 268 269 270 270 270 271 272 273 274 276 277 278 278 277 276 275 274 273 273 272 271 271 271 271 270 271 271 271 271 271 272 273 272 272 272 273 272 272 272 272 271 271 271 271 270 270 270 270
239 242 245 246 247 249 250 251 252 253 255 257 258 259 260 260 260 260 260 258 255 252 248 246 247 250 252 254 256 257 258 259 258 258 261 266 269 270 270 271 271 271 271 270 269 270 270 272 273 274 275 275 276 276 275 275 275 274 273 273 273 273 273 273 273 273 273 273 273 273 274 274 273 273 273 273 273 273 273 272 272 272 271 271 271 271 270 270
239 241 242 244 245 246 248 250 252 255 257 259 260 261 262 262 262 262 261 260 258 255 252 247 246 248 252 255 258 259 260 260 260 260 262 264 266 268 269 270 271 271 271 271 270 271 271 272 273 274 274 274 274 275 275 275 275 275 275 276 276 276 276 276 276 276 277 277 277 277 277 277 276 275 275 275 276 276 275 275 275 274 274 274 273 273 272 272
238 240 241 242 243 244 246 248 252 256 259 261 263 264 265 265 265 264 262 261 259 257 253 250 248 248 251 254 257 258 259 260 261 261 263 265 266 268 269 270 271 271 271 271 271 271 271 272 272 273 273 273 274 274 274 274 275 276 277 277 278 278 278 279 279 279 279 279 279 279 279 279 278 278 277 277 277 277 277 276 276 276 275 275 275 274 274 274
236 238 240 241 242 243 246 249 252 255 258 261 263 264 265 264 264 264 263 262 261 259 256 253 250 249 250 254 255 257 258 259 260 261 263 265 266 267 267 268 269 270 270 270 271 270 270 270 271 271 272 272 273 273 274 274 275 276 277 277 277 278 278 278 278 278 279 279 278 278 278 278 277 277 277 276 276 276 276 275 275 275 275 274 274 274 274 274
235 237 239 240 242 244 248 252 254 257 260 263 264 265 265 265 265 264 263 263 262 261 260 258 255 253 252 254 255 256 258 259 259 261 262 264 265 266 266 267 268 269 270 270 271 271 271 271 272 272 273 274 275 275 275 276 276 277 277 277 277 278 278 278 278 278 278 278 278 278 278 277 277 276 276 275 275 275 275 274 274 274 274 274 274 273 273 273
235 237 239 241 243 247 251 255 259 262 265 266 268 269 269 269 269 268 267 265 264 263 262 261 260 258 257 257 257 258 259 260 259 261 263 264 266 267 267 268 269 270 271 272 272 273 273 274 274 275 276 276 277 277 278 278 279 279 279 279 279 279 280 280 280 280 280 280 279 279 279 278 278 277 277 277 276 276 276 275 275 275 274 274 274 274 273 273
234 237 240 243 246 249 253 257 262 264 266 268 270 272 273 274 273 273 271 270 268 266 265 264 263 262 262 261 260 260 261 261 261 262 264 265 267 268 270 271 271 273 273 274 275 275 276 276 277 277 278 278 279 279 280 280 280 280 281 281 281 281 281 281 281 281 281 281 280 280 280 279 278 278 278 278 277 277 277 276 276 275 275 275 275 274 274 274
234 237 241 245 248 251 254 258 262 264 267 270 273 276 278 279 279 278 276 275 273 272 271 270 269 268 267 266 266 265 265 265 266 266 267 268 269 270 272 273 274 275 276 276 277 278 278 279 279 280 280 280 280 281 281 281 281 281 282 282 282 281 281 281 281 281 281 280 280 280 279 278 278 278 277 277 276 276 276 275 275 275 274 274 274 274 274 274
233 237 242 246 249 252 255 259 262 266 270 275 279 282 284 285 284 282 281 280 279 278 277 276 274 273 273 272 272 272 272 272 272 273 273 273 274 275 276 277 278 278 279 279 280 280 280 281 281 281 281 282 282 282 282 282 281 282 282 282 281 281 281 281 281 281 280 280 279 279 279 277 277 277 277 277 276 276 275 275 275 274 274 274 274 274 274 274
232 237 242 246 250 253 256 259 263 268 275 281 285 288 289 290 289 288 287 286 285 284 283 282 281 281 281 281 281 282 282 281 281 281 281 281 282 282 282 282 282 282 282 282 282 282 282 282 282 281 281 281 281 281 281 281 281 281 281 281 281 281 281 281 280 280 280 279 279 279 279 278 278 278 278 278 277 277 277 277 277 276 276 276 276 276 276 276
232 237 242 247 250 253 255 259 265 273 281 287 291 293 294 294 294 293 292 291 291 290 290 289 289 290 289 289 289 289 288 287 287 286 286 286 285 285 284 284 284 283 283 283 282 282 282 281 281 281 281 281 281 281 281 281 281 281 281 281 281 281 281 281 281 280 280 281 280 280 280 280 280 279 279 279 279 278 278 278 278 278 278 278 278 278 278 278
233 238 243 246 249 251 256 262 270 279 286 291 295 297 298 297 296 296 295 294 294 293 293 294 294 294 293 293 292 291 290 290 289 289 288 288 287 286 285 285 284 283 283 283 282 282 281 281 280 280 280 280 280 280 281 281 281 281 281 282 282 282 282 283 283 283 283 283 283 282 283 282 281 281 281 281 280 280 280 280 280 280 280 280 280 280 280 280
234 239 242 244 247 252 258 267 276 284 289 293 296 297 297 297 296 296 295 295 295 295 295 296 295 295 294 294 293 293 292 292 291 291 290 289 288 287 286 285 284 283 283 282 282 282 282 282 282 282 282 282 282 283 283 283 283 283 284 284 285 285 286 286 286 286 286 286 285 285 285 284 284 283 283 283 283 283 283 283 283 283 282 282 282 282 281 281
236 239 241 243 248 256 264 273 280 286 291 294 295 296 296 295 295 295 295 296 297 297 297 297 297 296 296 296 295 295 294 293 293 292 291 290 289 288 288 287 286 285 284 284 283 283 283 284 284 285 285 285 285 286 286 286 286 287 287 288 288 288 289 289 289 289 288 288 288 288 288 287 286 286 285 285 285 285 285 284 284 283 283 283 282 281 281 281
236 238 240 246 254 263 271 277 282 287 292 295 295 295 295 294 295 296 298 299 299 299 299 299 299 299 299 298 298 297 296 295 294 293 293 292 292 291 290 289 288 287 287 286 285 285 285 285 286 286 286 287 287 287 288 289 290 291 291 292 292 292 292 292 291 291 291 290 290 290 289 287 286 287 287 287 286 286 286 285 285 284 284 283 283 282 282 282
235 237 243 252 262 268 274 278 284 290 293 294 294 294 294 295 298 300 301 301 301 301 301 301 301 301 300 299 299 298 297 297 296 295 295 294 293 292 291 290 289 288 288 287 287 286 286 286 287 287 289 290 291 292 293 293 294 294 295 295 295 295 295 294 294 293 292 291 291 291 289 287 287 289 289 289 288 287 287 286 285 285 285 284 284 284 284 284
231 236 246 258 265 269 275 282 288 291 292 292 293 294 297 300 303 303 303 302 302 303 303 302 302 302 301 301 300 299 299 299 298 297 297 295 294 292 291 290 289 289 289 288 288 288 288 289 290 292 293 294 295 295 295 296 296 297 298 298 297 297 296 295 294 293 292 293 293 292 290 288 290 292 290 289 287 287 288 287 287 287 286 286 286 286 286 286
228 237 248 257 264 271 279 285 289 291 291 292 294 298 303 305 305 304 303 303 304 304 304 304 304 303 303 303 302 302 301 300 300 299 297 295 293 292 291 290 290 290 290 290 291 292 293 294 294 295 295 294 295 296 296 298 299 299 299 299 298 298 297 296 296 295 294 295 294 293 290 289 292 294 292 291 291 291 292 291 291 291 291 291 290 290 290 290
231 241 249 256 266 274 282 286 288 289 290 294 299 304 306 306 305 304 305 305 306 306 306 306 306 306 305 305 304 304 303 302 301 299 297 295 294 294 293 293 292 293 293 294 295 295 295 296 295 295 295 296 297 298 300 301 302 302 301 301 300 300 300 299 297 296 295 296 295 294 293 293 296 299 297 297 297 297 298 297 297 297 298 298 298 298 298 298
237 245 252 262 270 278 284 287 288 290 294 301 306 308 307 306 306 306 307 308 308 308 308 308 308 307 307 306 305 305 304 303 302 299 298 298 297 297 296 296 295 296 296 296 297 296 297 297 298 298 299 300 301 303 304 304 304 304 304 304 303 302 301 300 299 298 298 299 299 299 299 299 302 305 305 304 304 303 303 303 304 307 308 311 311 311 312 312
242 250 258 267 275 282 286 287 289 295 303 308 310 309 308 308 309 309 310 310 310 310 310 310 310 309 308 307 306 305 305 303 302 300 300 300 300 299 298 297 297 297 298 299 299 300 300 300 300 301 302 304 305 305 306 306 306 306 306 305 304 303 303 303 303 304 303 304 304 305 306 306 308 314 315 314 315 314 313 315 317 319 320 321 321 319 319 318
247 255 264 273 281 285 287 290 296 305 310 311 311 310 310 311 311 312 313 313 313 313 313 312 311 309 309 308 307 306 305 303 301 301 301 301 300 299 298 298 299 300 301 302 302 302 302 302 303 304 305 305 306 307 307 307 307 307 306 306 307 308 309 311 312 313 313 313 313 313 313 313 315 322 325 322 323 323 322 323 324 325 326 327 326 324 324 323
251 260 270 280 285 287 290 298 307 312 313 312 311 311 312 313 314 315 315 315 315 314 314 312 311 311 310 309 308 306 304 302 302 302 302 301 300 300 300 300 301 302 302 302 302 303 303 304 305 306 306 307 307 307 307 307 307 308 310 312 314 316 317 319 319 319 318 318 317 317 317 316 318 326 330 326 326 327 326 325 325 325 327 328 329 328 329 329
255 266 277 284 287 291 299 308 313 314 312 311 312 313 314 316 317 317 317 317 316 315 314 314 313 312 311 309 307 305 303 302 303 303 303 302 301 300 300 301 301 302 303 303 303 304 305 305 306 307 307 307 307 307 307 308 311 314 317 318 321 323 323 324 322 321 320 319 317 317 317 316 318 326 332 327 325 328 327 326 325 325 327 328 329 329 330 331
262 275 283 286 291 300 309 313 314 313 312 313 314 316 317 319 320 320 319 318 318 317 316 315 314 312 311 309 306 304 303 304 304 305 303 302 301 301 301 301 302 303 303 303 304 305 305 306 306 307 307 306 306 308 309 312 316 319 321 322 323 325 324 323 323 322 321 320 317 317 318 317 318 324 332 326 322 327 327 326 325 324 326 328 328 328 328 329
270 279 284 290 299 309 314 315 313 312 313 315 317 319 321 322 321 320 320 320 320 319 318 317 315 313 311 309 307 305 305 305 305 305 304 303 301 301 301 301 302 303 303 303 303 304 305 305 305 305 305 306 306 309 311 314 317 319 320 320 320 322 322 320 320 320 319 317 315 315 316 316 317 322 329 326 323 327 327 326 323 322 323 325 326 326 326 327
274 279 286 296 307 313 314 313 312 313 315 317 320 323 323 323 322 322 323 323 323 322 321 319 317 315 312 310 308 306 306 306 306 305 303 302 301 300 300 301 302 302 302 303 303 303 303 303 304 304 304 305 306 308 310 312 315 316 317 316 315 315 316 316 316 317 317 313 311 312 312 313 315 320 325 326 325 328 326 323 321 320 322 324 324 325 325 325
274 282 292 302 310 312 312 312 313 315 318 322 324 324 324 324 325 326 326 326 327 326 325 323 320 317 313 310 309 307 307 306 305 304 302 301 300 300 300 301 302 302 302 302 302 302 302 302 302 303 304 305 306 307 308 309 311 312 313 312 310 309 311 312 312 314 315 310 307 309 309 310 314 318 321 324 325 326 324 321 319 318 321 323 323 324 325 325
277 288 299 306 310 312 311 313 315 319 323 325 325 325 326 327 327 327 329 331 331 331 329 325 322 318 314 311 310 308 307 306 305 304 302 301 300 299 300 300 301 302 301 301 300 300 300 300 300 302 303 304 305 306 307 307 308 309 309 309 308 307 307 308 307 309 312 310 307 309 308 308 313 316 317 321 324 324 322 320 319 319 321 323 324 324 324 323
285 296 304 308 311 311 313 316 320 324 326 326 327 327 328 328 328 331 333 334 334 334 332 328 323 319 315 312 310 309 308 307 305 304 302 301 300 299 298 299 300 300 299 299 299 298 299 298 299 300 302 303 305 306 306 306 306 306 306 307 307 307 306 306 305 305 308 308 308 310 307 306 311 314 314 318 322 322 320 319 318 320 321 322 323 323 322 321
294 301 306 310 312 313 316 321 324 326 327 327 328 328 328 329 331 334 335 335 336 336 336 332 326 320 316 314 312 311 310 308 307 305 304 302 300 299 298 298 298 298 298 298 298 298 298 298 298 299 300 302 303 305 305 305 305 304 305 305 306 306 305 306 305 304 305 305 306 310 307 305 309 312 311 315 319 319 318 317 317 318 318 319 319 319 319 319
299 305 308 311 313 316 321 324 326 327 328 328 328 328 328 332 334 335 334 336 337 338 337 336 331 324 318 315 314 313 311 309 308 306 305 304 302 300 298 298 298 297 297 297 297 297 298 298 298 299 300 301 302 303 304 304 304 303 304 304 304 305 306 306 306 305 305 304 304 310 307 304 307 310 310 313 317 317 316 315 315 316 315 316 317 318 319 319
301 306 309 312 316 321 324 326 327 328 329 328 328 328 331 334 334 334 334 336 337 338 338 338 335 329 322 317 314 313 312 310 309 307 306 304 303 301 300 299 298 297 297 296 296 296 296 297 297 298 299 300 300 301 302 302 303 303 303 303 303 304 305 307 307 307 307 306 305 310 307 304 307 310 309 312 316 316 314 314 314 314 314 315 316 317 317 317
303 307 312 316 321 324 326 327 328 328 328 328 328 330 333 334 333 333 335 335 336 338 338 338 337 334 328 321 316 313 312 311 310 308 307 305 304 302 301 300 299 298 297 297 296 296 295 296 296 297 299 299 299 300 301 301 302 302 302 302 302 303 305 306 307 307 309 307 306 311 309 305 308 310 309 313 316 314 313 313 313 312 312 313 314 315 315 315
305 311 316 320 324 326 327 328 329 328 328 328 330 332 333 333 333 334 335 335 336 337 338 338 337 336 333 328 322 316 312 311 310 309 308 306 305 304 303 301 300 299 299 299 299 298 297 297 296 297 298 298 299 299 299 300 300 300 301 301 301 303 305 307 307 307 308 306 306 310 309 307 308 308 307 312 315 312 311 311 311 310 311 311 312 312 312 313
308 315 320 324 326 327 328 329 328 327 328 329 331 332 332 333 333 334 334 335 335 336 337 338 338 337 335 333 328 322 316 312 310 310 309 308 307 305 304 303 302 301 301 301 301 300 300 299 298 298 298 299 300 301 301 301 300 300 300 300 301 303 306 307 308 308 307 305 306 308 308 308 307 305 306 311 313 311 310 310 310 309 309 310 310 310 311 312
312 319 323 325 327 328 329 328 327 327 329 330 332 332 332 333 334 334 334 334 335 336 337 338 338 338 337 335 332 328 323 317 312 310 309 309 308 307 306 305 304 303 303 302 302 302 301 301 300 299 297 298 299 301 302 302 300 300 299 299 300 303 305 307 308 308 305 305 307 307 308 311 308 304 307 311 311 310 310 309 309 308 308 309 310 311 312 312
316 322 324 326 327 328 329 328 327 328 329 331 331 331 332 333 333 334 334 334 336 337 337 338 339 339 338 337 335 333 330 326 320 314 310 309 308 307 307 306 305 305 304 304 304 303 302 302 302 301 299 298 298 299 300 300 299 299 298 297 300 303 306 308 309 307 304 305 307 305 306 312 309 305 308 310 310 310 310 309 309 309 309 310 311 312 312 312
319 323 325 327 328 328 328 327 327 328 329 330 331 331 332 333 333 334 334 335 336 337 338 339 340 340 340 339 338 336 334 332 328 324 318 313 310 307 307 307 306 305 305 305 305 305 304 303 304 303 301 300 301 301 302 301 300 299 297 297 300 305 308 310 309 307 304 305 308 305 306 311 308 304 307 309 309 310 310 310 309 309 309 311 312 313 313 312
321 324 326 327 328 328 327 327 328 329 329 330 330 330 332 333 333 333 334 335 337 338 338 340 341 342 342 341 340 338 337 335 333 330 326 322 317 312 308 307 307 306 307 307 307 307 306 305 306 305 303 301 302 304 304 303 301 299 296 296 301 306 309 310 309 306 305 307 308 306 307 310 307 304 307 308 308 309 310 310 309 308 309 311 312 313 312 312
322 325 327 327 327 327 327 328 328 329 329 329 329 330 331 332 333 333 335 336 337 338 339 340 342 343 343 343 342 340 339 338 336 334 331 328 325 319 314 311 309 308 308 309 309 310 310 308 308 309 306 304 305 306 306 304 302 298 295 296 301 307 310 311 310 307 307 309 310 308 309 310 307 306 308 308 308 310 310 310 309 308 309 311 312 312 312 312
323 325 326 325 326 327 327 327 328 329 329 329 329 330 331 332 332 333 335 336 337 339 340 341 342 344 344 344 343 342 341 340 339 337 335 333 330 326 322 317 314 312 311 311 312 312 313 312 311 312 309 307 308 309 309 307 304 299 297 299 304 309 312 313 311 308 308 310 310 309 311 311 308 308 310 309 309 311 311 310 308 308 309 312 313 312 312 312
322 324 324 324 325 327 327 327 328 328 328 328 328 329 330 331 332 333 335 336 337 339 340 341 342 344 345 345 344 344 343 343 342 340 338 337 335 333 329 325 321 317 314 314 315 314 315 315 314 314 313 310 311 313 313 311 307 302 300 302 307 311 314 313 311 309 309 310 310 311 312 311 308 309 310 310 310 311 311 310 308 308 310 312 313 312 312 312
322 323 323 323 325 326 326 327 328 328 328 328 327 328 330 331 332 333 334 336 337 338 339 341 341 342 345 345 344 344 344 344 344 343 342 341 340 338 336 332 329 325 321 319 319 317 317 317 316 316 316 314 313 315 316 313 308 303 301 304 308 312 315 314 312 310 309 310 310 312 313 311 309 310 311 311 311 311 311 310 308 308 310 312 312 312 312 312
321 323 322 322 324 326 326 327 327 328 328 327 326 327 329 330 332 333 333 334 336 338 338 339 339 340 342 343 343 342 343 344 344 344 343 343 343 341 340 338 335 332 328 326 325 322 320 320 320 319 319 317 315 316 317 314 308 304 302 305 310 313 315 314 312 310 309 309 311 313 313 311 310 311 311 310 310 310 311 310 308 308 311 312 312 311 312 312
Height
10698 10699 10699 10700 10700 10700 10700 10701 10702 10702 10703 10703 10704 10705 10705 10705 10705 10706 10707 10707 10708 10708 10709 10710 10710 10711 10711 10711 10712 10712 10712 10711 10711 10711 10711 10711 10711 10711 10711 10711 10711 10711 10711 10711 10711 10711 10711 10711 10711 10711 10711 10710 10709 10709 10708 10707 10707 10706 10706 10706 10706 10705 10705 10704 10703 10702 10701 10701 10700 10699 10698 10698 10697 10696 10695 10694 10694 10693 10692 10691 10690 10689 10688 10688 10687 10687 10686 10685
10695 10696 10697 10697 10698 10698 10698 10699 10700 10700 10700 10701 10701 10702 10703 10703 10703 10703 10704 10704 10704 10705 10706 10707 10707 10707 10708 10708 10709 10709 10709 10708 10708 10708 10708 10708 10708 10708 10708 10707 10707 10707 10707 10707 10707 10707 10707 10707 10706 10706 10706 10705 10705 10704 10703 10702 10701 10701 10700 10700 10700 10700 10699 10698 10697 10696 10696 10695 10695 10694 10693 10692 10691 10690 10689 10688 10687 10687 10686 10685 10684 10683 10682 10681 10681 10680 10679 10678
10692 10693 10694 10695 10695 10696 10696 10697 10697 10698 10698 10699 10699 10699 10700 10700 10701 10701 10701 10701 10701 10702 10703 10704 10704 10705 10705 10705 10705 10705 10705 10705 10705 10704 10704 10704 10704 10704 10704 10704 10704 10703 10703 10703 10703 10702 10702 10702 10701 10701 10700 10700 10699 10698 10697 10696 10695 10695 10694 10694 10694 10694 10693 10692 10691 10691 10690 10689 10688 10687 10687 10686 10684 10683 10683 10682 10681 10680 10679 10678 10677 10676 10674 10674 10673 10672 10672 10670
10689 10690 10691 10692 10693 10694 10695 10695 10695 10695 10696 10697 10697 10697 10697 10698 10698 10699 10698 10699 10699 10699 10700 10701 10701 10701 10702 10702 10702 10702 10702 10702 10701 10700 10700 10700 10701 10700 10700 10700 10700 10699 10699 10699 10698 10698 10697 10697 10696 10695 10695 10694 10693 10692 10691 10690 10690 10689 10687 10687 10687 10687 10686 10686 10685 10684 10683 10682 10681 10681 10680 10679 10677 10677 10676 10675 10674 10672 10671 10670 10669 10668 10667 10666 10665 10664 10663 10662
10687 10688 10689 10690 10690 10691 10692 10693 10693 10693 10694 10694 10695 10695 10695 10695 10696 10696 10696 10696 10696 10696 10698 10699 10699 10699 10699 10699 10699 10699 10699 10699 10698 10697 10696 10696 10697 10697 10696 10696 10695 10694 10694 10693 10693 10693 10692 10691 10690 10690 10689 10689 10688 10687 10686 10685 10684 10683 10681 10680 10680 10679 10679 10678 10678 10677 10676 10675 10674 10673 10673 10672 10671 10670 10668 10667 10666 10664 10663 10662 10661 10660 10659 10657 10656 10655 10654 10653
10685 10686 10687 10688 10688 10689 10690 10690 10691 10691 10692 10692 10692 10692 10693 10693 10693 10693 10694 10694 10694 10694 10694 10695 10696 10696 10697 10697 10696 10696 10696 10696 10695 10694 10693 10692 10692 10693 10693 10692 10691 10690 10689 10689 10688 10687 10687 10686 10685 10684 10683 10683 10682 10681 10680 10678 10678 10677 10675 10674 10673 10672 10672 10671 10670 10669 10669 10668 10667 10667 10665 10664 10664 10662 10661 10659 10657 10656 10655 10654 10653 10652 10650 10649 10647 10646 10644 10643
10684 10685 10685 10686 10686 10687 10687 10688 10688 10689 10690 10690 10690 10690 10690 10690 10690 10690 10691 10691 10691 10692 10692 10692 10692 10693 10693 10693 10693 10693 10692 10692 10692 10691 10689 10689 10689 10689 10688 10688 10687 10686 10685 10684 10683 10682 10681 10680 10679 10678 10677 10676 10675 10674 10673 10672 10671 10670 10668 10667 10666 10666 10665 10664 10663 10662 10662 10661 10660 10660 10658 10657 10656 10655 10653 10651 10649 10647 10646 10646 10644 10643 10641 10640 10638 10637 10635 10633
10682 10683 10684 10684 10685 10685 10685 10685 10686 10687 10687 10687 10688 10688 10688 10687 10688 10688 10688 10688 10688 10689 10689 10690 10690 10690 10689 10689 10689 10689 10688 10688 10688 10687 10686 10685 10684 10683 10683 10682 10682 10681 10680 10678 10677 10676 10675 10675 10674 10672 10671 10669 10668 10667 10666 10666 10664 10663 10662 10661 10660 10659 10658 10657 10656 10655 10655 10654 10653 10652 10651 10650 10648 10647 10645 10642 10640 10639 10638 10637 10635 10633 10632 10630 10628 10627 10625 10623
10680 10681 10682 10683 10683 10683 10683 10684 10684 10685 10685 10685 10685 10686 10685 10685 10685 10685 10685 10685 10685 10686 10686 10687 10687 10687 10686 10686 10685 10685 10684 10683 10683 10682 10681 10681 10679 10678 10677 10677 10676 10674 10674 10672 10671 10670 10669 10668 10667 10666 10665 10663 10662 10661 10660 10659 10658 10656 10655 10655 10654 10652 10651 10650 10649 10648 10647 10646 10645 10644 10642 10641 10639 10638 10635 10632 10631 10630 10628 10626 10625 10623 10621 10618 10617 10615 10613 10612
10678 10679 10680 10680 10681 10681 10682 10682 10683 10683 10683 10683 10683 10683 10683 10683 10683 10683 10682 10682 10682 10682 10683 10683 10683 10683 10683 10682 10681 10681 10679 10679 10679 10677 10676 10676 10675 10674 10672 10671 10670 10668 10667 10666 10665 10664 10663 10662 10661 10660 10658 10656 10655 10654 10653 10652 10651 10649 10648 10647 10646 10644 10643 10642 10641 10640 10638 10637 10635 10634 10632 10631 10629 10627 10625 10622 10621 10619 10617 10615 10613 10611 10609 10606 10604 10603 10601 10599
10676 10677 10678 10678 10679 10679 10680 10681 10681 10682 10681 10681 10681 10681 10681 10681 10680 10680 10680 10679 10679 10679 10679 10679 10679 10679 10678 10678 10677 10676 10675 10675 10674 10673 10672 10671 10670 10669 10667 10665 10664 10662 10661 10660 10659 10657 10656 10655 10654 10653 10652 10650 10648 10647 10646 10644 10643 10642 10641 10640 10638 10636 10635 10633 10632 10631 10629 10627 10625 10623 10623 10621 10618 10616 10614 10612 10610 10608 10606 10604 10601 10599 10597 10594 10592 10590 10589 10587
10674 10675 10676 10676 10677 10677 10678 10679 10679 10679 10679 10679 10679 10679 10679 10679 10678 10678 10677 10677 10676 10676 10675 10675 10675 10674 10674 10673 10673 10672 10670 10670 10670 10668 10667 10665 10664 10663 10661 10660 10658 10656 10655 10654 10652 10651 10650 10648 10647 10646 10644 10642 10641 10640 10638 10636 10635 10634 10632 10631 10629 10628 10626 10624 10622 10621 10619 10617 10615 10613 10613 10611 10606 10604 10603 10601 10599 10597 10595 10592 10590 10588 10585 10583 10581 10578 10576 10574
10672 10673 10674 10674 10675 10676 10676 10676 10677 10677 10677 10677 10677 10677 10677 10676 10676 10676 10675 10675 10674 10673 10672 10672 10671 10670 10670 10669 10668 10667 10666 10665 10665 10663 10662 10660 10659 10657 10656 10654 10652 10651 10649 10647 10646 10644 10642 10641 10640 10638 10636 10634 10632 10631 10630 10628 10626 10624 10622 10621 10619 10618 10616 10614 10612 10610 10608 10606 10604 10602 10603 10600 10594 10593 10592 10590 10588 10586 10583 10581 10579 10577 10574 10572 10569 10567 10565 10563
10670 10671 10672 10673 10674 10674 10674 10675 10675 10675 10675 10675 10675 10675 10675 10674 10674 10673 10673 10672 10671 10670 10669 10669 10668 10667 10666 10665 10664 10663 10661 10660 10659 10658 10657 10655 10654 10652 10650 10648 10646 10645 10643 10641 10639 10637 10635 10633 10632 10630 10628 10626 10624 10623 10621 10620 10618 10615 10614 10612 10610 10609 10607 10605 10602 10601 10599 10597 10594 10592 10592 10589 10584 10583 10582 10580 10578 10575 10573 10570 10568 10566 10563 10561 10558 10556 10554 10552
10669 10670 10671 10672 10672 10673 10673 10673 10673 10673 10673 10673 10673 10672 10672 10672 10671 10670 10669 10668 10668 10667 10666 10665 10664 10663 10662 10661 10659 10658 10657 10655 10654 10653 10651 10650 10648 10647 10645 10642 10640 10638 10636 10635 10633 10631 10628 10626 10624 10622 10620 10618 10617 10615 10614 10612 10610 10607 10606 10604 10601 10599 10598 10596 10593 10592 10590 10588 10585 10583 10583 10579 10574 10574 10572 10570 10568 10566 10563 10561 10558 10556 10554 10551 10549 10547 10544 10542
10667 10668 10669 10670 10671 10671 10671 10672 10671 10671 10671 10671 10670 10670 10669 10669 10668 10667 10666 10665 10664 10663 10662 10661 10660 10659 10658 10656 10654 10653 10652 10650 10648 10647 10645 10644 10642 10641 10639 10637 10634 10632 10630 10628 10626 10624 10622 10619 10617 10615 10613 10611 10609 10607 10606 10604 10601 10599 10598 10596 10593 10591 10590 10587 10585 10583 10582 10580 10577 10575 10573 10569 10566 10565 10563 10561 10559 10557 10554 10551 10550 10547 10544 10542 10540 10538 10535 10533
10666 10667 10668 10669 10669 10670 10670 10670 10670 10669 10669 10669 10668 10667 10667 10666 10665 10664 10663 10661 10660 10659 10658 10657 10656 10654 10653 10651 10650 10648 10647 10645 10643 10641 10639 10638 10636 10635 10633 10631 10628 10626 10623 10621 10619 10617 10615 10612 10610 10608 10606 10604 10601 10599 10598 10596 10594 10592 10590 10588 10586 10583 10581 10579 10577 10575 10573 10572 10569 10567 10565 10560 10558 10557 10554 10552 10550 10547 10544 10542 10540 10538 10535 10533 10531 10528 10526 10523
10665 10666 10667 10667 10668 10668 10668 10668 10668 10668 10667 10666 10666 10665 10664 10663 10661 10660 10659 10658 10657 10655 10654 10653 10651 10650 10649 10647 10646 10644 10642 10640 10638 10636 10634 10632 10630 10629 10627 10625 10622 10620 10617 10614 10612 10610 10608 10605 10603 10601 10598 10596 10594 10592 10591 10589 10587 10585 10583 10580 10578 10576 10574 10572 10570 10567 10565 10564 10561 10559 10557 10551 10549 10549 10546 10543 10541 10538 10535 10534 10531 10529 10527 10524 10522 10519 10517 10514
10664 10665 10665 10666 10667 10667 10667 10667 10666 10666 10665 10664 10663 10662 10661 10660 10659 10658 10656 10655 10654 10652 10651 10650 10648 10647 10645 10643 10642 10639 10637 10635 10633 10631 10629 10626 10624 10622 10620 10618 10616 10614 10611 10607 10605 10602 10600 10598 10595 10594 10592 10590 10588 10586 10584 10582 10580 10578 10576 10574 10572 10569 10567 10565 10563 10560 10558 10556 10553 10551 10549 10544 10541 10541 10538 10535 10532 10529 10527 10525 10523 10520 10518 10515 10513 10511 10508 10505
10663 10663 10664 10665 10665 10665 10665 10665 10665 10664 10663 10663 10662 10660 10659 10658 10656 10655 10654 10652 10651 10650 10648 10647 10645 10643 10641 10639 10637 10635 10633 10630 10627 10625 10622 10620 10618 10615 10613 10611 10609 10607 10604 10601 10598 10595 10593 10590 10588 10587 10585 10583 10582 10580 10578 10576 10574 10572 10570 10568 10565 10563 10561 10558 10556 10553 10551 10549 10545 10544 10542 10536 10532 10532 10530 10527 10524 10521 10519 10517 10514 10512 10510 10507 10505 10502 10498 10496
10661 10662 10663 10663 10663 10664 10664 10663 10663 10662 10662 10661 10660 10658 10657 10656 10654 10653 10651 10650 10649 10647 10645 10643 10641 10639 10637 10635 10632 10630 10628 10625 10622 10619 10616 10614 10611 10608 10606 10604 10602 10600 10598 10595 10592 10590 10587 10585 10583 10581 10579 10577 10576 10574 10572 10570 10568 10566 10564 10562 10559 10557 10555 10552 10549 10546 10543 10541 10538 10536 10534 10527 10524 10524 10521 10519 10516 10512 10511 10509 10506 10503 10501 10498 10495 10491 10488 10486
10660 10661 10662 10662 10662 10662 10662 10662 10661 10661 10660 10659 10658 10656 10655 10654 10652 10651 10649 10647 10646 10644 10642 10640 10637 10635 10632 10630 10627 10624 10622 10619 10617 10614 10610 10607 10604 10601 10599 10596 10594 10592 10591 10589 10587 10585 10582 10580 10578 10576 10574 10572 10570 10568 10566 10564 10562 10560 10558 10556 10553 10550 10548 10545 10542 10539 10536 10533 10530 10530 10526 10518 10516 10517 10512 10511 10507 10503 10503 10499 10496 10494 10491 10488 10484 10481 10479 10476
10659 10660 10660 10661 10661 10661 10661 10660 10660 10659 10658 10657 10655 10654 10653 10651 10650 10648 10646 10644 10642 10640 10638 10635 10633 10630 10627 10625 10622 10619 10616 10613 10611 10608 10605 10602 10598 10595 10593 10591 10589 10587 10585 10584 10582 10580 10578 10576 10573 10571 10569 10567 10565 10563 10561 10558 10556 10554 10552 10549 10547 10543 10541 10538 10534 10531 10527 10526 10523 10522 10517 10507 10508 10511 10505 10502 10497 10494 10494 10490 10486 10485 10482 10478 10475 10472 10470 10467
10658 10659 10659 10659 10659 10659 10659 10659 10658 10657 10656 10655 10653 10652 10650 10649 10647 10645 10643 10641 10639 10636 10633 10631 10628 10625 10622 10619 10616 10613 10611 10608 10605 10602 10599 10596 10593 10590 10588 10586 10584 10582 10581 10579 10577 10575 10573 10571 10569 10566 10564 10562 10560 10558 10556 10553 10551 10549 10546 10544 10541 10537 10534 10531 10528 10524 10520 10518 10516 10515 10508 10497 10501 10506 10499 10494 10489 10486 10487 10482 10479 10477 10474 10470 10467 10464 10462 10459
10658 10658 10658 10658 10658 10658 10658 10657 10656 10655 10654 10653 10651 10650 10648 10646 10644 10642 10640 10637 10635 10632 10629 10626 10623 10620 10617 10614 10611 10608 10605 10602 10599 10596 10593 10591 10588 10586 10584 10582 10580 10578 10576 10574 10572 10570 10568 10566 10564 10562 10560 10558 10556 10553 10551 10549 10546 10544 10541 10538 10535 10531 10528 10524 10521 10517 10513 10512 10509 10508 10502 10491 10495 10500 10493 10487 10483 10480 10479 10475 10472 10470 10466 10463 10460 10457 10455 10451
10657 10657 10657 10657 10657 10656 10656 10655 10654 10653 10652 10650 10649 10647 10645 10643 10641 10639 10636 10633 10630 10627 10624 10621 10618 10614 10611 10608 10605 10602 10599 10596 10593 10591 10588 10586 10584 10582 10579 10577 10575 10573 10572 10570 10568 10566 10564 10562 10560 10558 10555 10553 10551 10549 10547 10544 10542 10539 10536 10532 10529 10525 10522 10518 10515 10511 10508 10507 10503 10501 10497 10489 10490 10493 10487 10482 10478 10474 10471 10468 10466 10464 10460 10457 10453 10450 10447 10444
10656 10656 10656 10656 10655 10655 10654 10653 10652 10651 10649 10648 10646 10644 10642 10640 10638 10635 10633 10629 10626 10623 10619 10616 10613 10609 10606 10603 10599 10596 10593 10590 10588 10585 10583 10581 10579 10577 10575 10572 10571 10569 10567 10565 10564 10562 10559 10557 10555 10553 10551 10549 10547 10544 10542 10539 10536 10533 10530 10527 10524 10520 10517 10513 10509 10506 10503 10501 10498 10494 10491 10485 10486 10487 10482 10477 10473 10469 10466 10462 10460 10458 10454 10451 10447 10443 10440 10437
10654 10654 10654 10654 10654 10653 10652 10651 10650 10649 10647 10645 10643 10641 10639 10636 10634 10631 10628 10625 10621 10618 10614 10611 10608 10604 10601 10597 10594 10591 10588 10585 10582 10580 10578 10576 10574 10572 10570 10568 10567 10565 10563 10561 10559 10557 10555 10553 10551 10548 10546 10544 10542 10540 10537 10534 10531 10529 10525 10522 10519 10516 10513 10508 10504 10500 10497 10495 10493 10490 10486 10481 10480 10482 10478 10472 10468 10464 10460 10457 10453 10450 10448 10445 10442 10438 10435 10432
10653 10653 10653 10652 10652 10651 10650 10649 10648 10646 10644 10642 10640 10638 10635 10633 10630 10627 10624 10620 10616 10613 10610 10606 10603 10599 10596 10592 10589 10586 10583 10580 10578 10576 10574 10572 10570 10568 10566 10564 10562 10560 10558 10556 10554 10552 10550 10548 10546 10544 10542 10540 10537 10535 10533 10530 10527 10524 10521 10518 10514 10510 10507 10503 10498 10494 10490 10488 10486 10484 10482 10478 10476 10476 10474 10469 10465 10460 10456 10453 10449 10445 10442 10439 10436 10433 10430 10427
10651 10651 10651 10650 10650 10649 10648 10646 10645 10643 10641 10639 10637 10635 10632 10629 10626 10622 10619 10616 10612 10608 10605 10601 10598 10594 10591 10587 10584 10581 10578 10576 10574 10572 10570 10568 10566 10564 10562 10560 10558 10557 10555 10552 10550 10548 10546 10544 10542 10540 10537 10535 10533 10530 10528 10526 10523 10520 10517 10513 10509 10505 10502 10498 10494 10489 10485 10481 10480 10478 10476 10474 10472 10471 10469 10465 10462 10458 10454 10450 10446 10442 10439 10435 10431 10427 10424 10420
10650 10649 10649 10648 10648 10647 10646 10644 10642 10641 10639 10637 10634 10632 10628 10625 10622 10618 10615 10611 10608 10604 10600 10597 10593 10589 10586 10582 10579 10576 10574 10572 10570 10568 10566 10564 10562 10560 10559 10557 10555 10553 10551 10548 10546 10544 10542 10540 10538 10535 10533 10530 10528 10526 10524 10521 10518 10515 10512 10509 10505 10501 10497 10493 10490 10485 10480 10476 10473 10472 10470 10468 10467 10467 10465 10461 10459 10455 10451 10447 10442 10438 10435 10431 10427 10422 10418 10414
10648 10648 10647 10646 10645 10644 10643 10641 10640 10638 10636 10634 10631 10628 10625 10622 10618 10615 10611 10607 10604 10600 10596 10592 10589 10585 10581 10578 10575 10572 10570 10568 10566 10564 10562 10560 10558 10556 10555 10553 10551 10549 10547 10545 10542 10540 10538 10536 10533 10531 10529 10526 10523 10521 10519 10517 10514 10511 10508 10505 10501 10498 10494 10490 10486 10482 10476 10471 10466 10464 10463 10460 10459 10461 10461 10458 10455 10452 10447 10443 10438 10434 10430 10427 10422 10418 10414 10409
10647 10646 10645 10644 10643 10642 10641 10639 10638 10635 10633 10631 10628 10625 10621 10618 10615 10611 10607 10604 10600 10596 10592 10588 10584 10580 10577 10574 10571 10569 10566 10564 10562 10560 10558 10556 10554 10552 10551 10549 10547 10545 10543 10541 10539 10536 10534 10532 10530 10527 10525 10522 10520 10517 10514 10512 10510 10507 10504 10501 10498 10496 10492 10488 10484 10480 10475 10468 10461 10457 10455 10454 10453 10453 10454 10452 10449 10447 10443 10438 10434 10429 10426 10423 10418 10414 10409 10405
10645 10644 10644 10643 10642 10640 10639 10637 10635 10633 10631 10628 10625 10622 10618 10615 10611 10608 10604 10600 10596 10592 10588 10584 10579 10576 10573 10570 10567 10565 10562 10560 10558 10557 10555 10553 10551 10549 10547 10545 10543 10541 10539 10537 10535 10533 10530 10528 10526 10523 10521 10518 10516 10513 10511 10508 10506 10504 10501 10498 10495 10492 10490 10487 10483 10479 10475 10467 10458 10453 10448 10447 10448 10447 10447 10445 10442 10441 10437 10433 10428 10423 10420 10417 10412 10408 10403 10399
10644 10643 10642 10641 10640 10639 10637 10635 10633 10630 10628 10625 10622 10618 10615 10612 10608 10604 10600 10596 10592 10587 10583 10579 10575 10572 10569 10566 10564 10561 10559 10557 10555 10553 10551 10549 10547 10545 10543 10541 10539 10537 10535 10533 10531 10529 10527 10524 10522 10520 10517 10514 10512 10509 10507 10504 10502 10500 10497 10495 10492 10489 10486 10484 10480 10477 10475 10467 10457 10451 10443 10440 10441 10439 10438 10438 10435 10433 10430 10425 10421 10417 10413 10410 10405 10400 10395 10390
10642 10641 10641 10639 10638 10637 10635 10633 10630 10628 10625 10621 10618 10615 10611 10608 10604 10600 10596 10592 10588 10583 10579 10575 10572 10569 10566 10563 10561 10558 10556 10553 10551 10549 10547 10545 10543 10541 10539 10537 10535 10533 10531 10529 10527 10525 10523 10521 10518 10516 10513 10511 10507 10505 10503 10500 10498 10496 10493 10491 10488 10485 10482 10481 10477 10473 10472 10466 10457 10449 10439 10435 10436 10432 10429 10429 10427 10424 10420 10415 10411 10406 10404 10400 10395 10390 10385 10380
10640 10640 10639 10638 10636 10634 10632 10630 10627 10624 10622 10618 10615 10612 10608 10605 10601 10597 10593 10589 10585 10580 10576 10572 10568 10566 10563 10560 10558 10555 10552 10550 10547 10545 10543 10542 10540 10537 10536 10533 10531 10529 10527 10525 10523 10521 10519 10517 10515 10512 10509 10507 10503 10501 10498 10495 10493 10491 10489 10487 10484 10481 10477 10475 10473 10470 10468 10464 10457 10448 10434 10429 10433 10429 10422 10421 10419 10415 10410 10405 10400 10395 10392 10389 10385 10382 10378 10373
10639 10638 10637 10635 10634 10632 10630 10627 10624 10621 10618 10615 10612 10609 10605 10602 10598 10594 10590 10586 10582 10577 10573 10569 10566 10563 10560 10557 10554 10552 10549 10546 10544 10542 10539 10538 10536 10533 10532 10529 10527 10525 10523 10521 10518 10516 10514 10511 10510 10508 10505 10502 10499 10496 10493 10490 10488 10485 10483 10481 10479 10477 10473 10469 10467 10464 10464 10461 10457 10450 10432 10421 10427 10426 10418 10416 10414 10409 10404 10397 10392 10388 10384 10382 10379 10375 10371 10366
10637 10636 10635 10633 10632 10629 10627 10624 10621 10618 10615 10612 10609 10606 10602 10598 10594 10591 10587 10584 10580 10575 10571 10567 10563 10560 10557 10554 10551 10548 10546 10543 10540 10538 10535 10533 10531 10529 10527 10525 10523 10521 10518 10516 10513 10511 10509 10506 10504 10502 10500 10498 10495 10492 10488 10485 10482 10480 10478 10476 10473 10472 10469 10465 10460 10456 10456 10455 10453 10451 10433 10416 10420 10421 10414 10412 10409 10404 10399 10392 10386 10382 10377 10375 10371 10367 10362 10357
10635 10634 10633 10631 10629 10627 10624 10621 10619 10616 10613 10609 10606 10603 10599 10595 10592 10589 10585 10581 10577 10573 10569 10565 10561 10557 10554 10551 10548 10545 10542 10539 10537 10534 10532 10529 10527 10525 10523 10520 10518 10516 10514 10512 10509 10506 10504 10502 10499 10496 10495 10493 10490 10487 10483 10479 10476 10473 10471 10469 10467 10466 10464 10461 10455 10448 10446 10445 10445 10448 10434 10414 10413 10414 10407 10406 10404 10398 10393 10388 10381 10376 10371 10367 10363 10359 10354 10349
10633 10632 10631 10629 10626 10624 10621 10619 10616 10613 10610 10607 10604 10600 10596 10593 10589 10586 10582 10578 10575 10571 10567 10563 10558 10555 10551 10547 10544 10541 10538 10536 10533 10530 10528 10525 10523 10520 10518 10516 10513 10511 10509 10506 10504 10502 10499 10497 10494 10490 10489 10486 10484 10482 10478 10474 10470 10466 10463 10461 10460 10459 10458 10456 10452 10444 10439 10435 10433 10439 10433 10413 10406 10405 10399 10398 10398 10391 10386 10382 10376 10370 10364 10361 10356 10351 10347 10343
10632 10630 10628 10626 10624 10621 10619 10616 10613 10610 10607 10604 10601 10597 10593 10590 10587 10583 10579 10576 10572 10568 10565 10560 10556 10552 10548 10544 10541 10538 10535 10532 10529 10526 10524 10521 10519 10516 10514 10511 10509 10506 10504 10501 10499 10496 10494 10492 10489 10485 10482 10480 10477 10476 10473 10469 10464 10458 10455 10453 10452 10452 10451 10449 10447 10442 10436 10429 10424 10428 10428 10413 10402 10397 10392 10392 10391 10385 10378 10374 10370 10364 10359 10355 10351 10346 10341 10337
10630 10628 10626 10623 10621 10619 10616 10613 10610 10608 10605 10601 10598 10594 10591 10587 10584 10580 10577 10573 10569 10565 10562 10558 10553 10549 10545 10541 10538 10534 10531 10528 10525 10522 10519 10517 10514 10512 10509 10507 10504 10501 10499 10496 10494 10491 10488 10486 10485 10481 10476 10472 10469 10468 10466 10462 10457 10451 10446 10443 10442 10443 10443 10442 10439 10436 10431 10424 10417 10417 10420 10413 10400 10389 10386 10386 10384 10378 10371 10366 10362 10358 10353 10348 10345 10339 10334 10328
10628 10626 10623 10621 10619 10616 10613 10611 10608 10605 10602 10598 10595 10591 10588 10585 10581 10577 10574 10570 10566 10562 10558 10554 10550 10546 10542 10538 10535 10531 10527 10524 10521 10518 10515 10512 10510 10507 10504 10502 10499 10496 10494 10491 10489 10486 10482 10480 10479 10477 10472 10467 10463 10460 10458 10455 10449 10444 10438 10433 10433 10434 10435 10434 10432 10429 10424 10419 10412 10405 10408 10409 10395 10381 10380 10380 10376 10372 10364 10357 10353 10350 10346 10342 10337 10331 10325 10318
10625 10623 10621 10619 10616 10614 10611 10608 10605 10602 10598 10595 10592 10588 10585 10582 10578 10575 10571 10567 10563 10559 10555 10551 10547 10543 10539 10535 10531 10527 10524 10520 10517 10514 10511 10508 10505 10502 10500 10497 10494 10492 10489 10487 10484 10481 10477 10473 10472 10471 10467 10463 10460 10456 10454 10450 10443 10437 10430 10424 10424 10426 10427 10426 10423 10420 10415 10414 10410 10396 10395 10404 10390 10372 10371 10371 10367 10364 10358 10349 10342 10338 10335 10333 10328 10322 10315 10308
10623 10621 10619 10616 10614 10611 10608 10605 10602 10599 10595 10592 10589 10585 10582 10579 10575 10572 10568 10564 10560 10556 10552 10548 10543 10539 10535 10531 10527 10523 10519 10516 10513 10510 10507 10504 10501 10498 10495 10492 10489 10487 10484 10482 10480 10477 10473 10468 10466 10464 10459 10456 10454 10451 10449 10445 10438 10430 10421 10415 10416 10419 10419 10417 10415 10410 10404 10406 10406 10391 10384 10394 10387 10370 10366 10364 10357 10354 10350 10342 10334 10327 10324 10322 10318 10312 10305 10298
10621 10618 10616 10614 10611 10608 10605 10602 10599 10596 10592 10589 10586 10582 10579 10576 10572 10569 10565 10561 10557 10553 10549 10545 10540 10536 10531 10527 10523 10519 10515 10511 10508 10505 10502 10499 10496 10493 10490 10487 10484 10482 10479 10477 10475 10473 10469 10464 10461 10458 10453 10449 10448 10445 10442 10438 10432 10423 10413 10407 10408 10411 10411 10410 10405 10400 10394 10395 10398 10387 10378 10380 10377 10368 10363 10357 10351 10347 10342 10334 10326 10319 10316 10313 10309 10303 10295 10289
10618 10616 10613 10611 10608 10606 10602 10599 10596 10593 10589 10586 10583 10579 10576 10573 10569 10565 10562 10558 10554 10550 10546 10541 10537 10533 10529 10524 10520 10515 10512 10508 10504 10501 10497 10494 10491 10488 10485 10482 10479 10476 10474 10472 10469 10468 10466 10461 10457 10454 10447 10441 10442 10440 10436 10432 10427 10416 10405 10400 10403 10405 10404 10403 10397 10389 10384 10384 10384 10380 10374 10369 10362 10359 10357 10349 10342 10340 10334 10326 10317 10310 10307 10306 10300 10293 10286 10279
10616 10613 10611 10608 10606 10603 10600 10596 10593 10590 10587 10583 10580 10576 10573 10570 10566 10563 10559 10555 10551 10547 10543 10538 10534 10530 10526 10522 10518 10513 10509 10505 10501 10497 10493 10489 10487 10483 10480 10477 10474 10471 10468 10466 10464 10462 10461 10457 10453 10451 10444 10435 10434 10434 10430 10426 10420 10409 10398 10393 10396 10399 10397 10394 10389 10380 10374 10374 10372 10369 10369 10363 10350 10347 10348 10342 10334 10330 10326 10318 10309 10300 10298 10297 10291 10283 10276 10270
10613 10611 10608 10606 10603 10600 10597 10594 10590 10587 10584 10580 10577 10573 10570 10567 10563 10560 10556 10552 10548 10544 10540 10536 10532 10528 10524 10519 10515 10511 10507 10502 10499 10494 10490 10486 10482 10479 10476 10472 10469 10466 10463 10461 10459 10456 10455 10453 10449 10447 10442 10433 10428 10428 10424 10419 10413 10402 10392 10388 10388 10391 10390 10385 10379 10372 10366 10365 10362 10358 10359 10355 10345 10338 10337 10332 10326 10322 10316 10308 10299 10292 10289 10287 10282 10273 10266 10259
10611 10608 10606 10603 10600 10597 10594 10591 10587 10584 10581 10577 10574 10571 10567 10564 10560 10557 10553 10550 10546 10541 10537 10533 10529 10525 10522 10517 10513 10509 10504 10500 10496 10491 10487 10483 10479 10475 10472 10468 10465 10461 10458 10456 10454 10450 10448 10447 10444 10442 10439 10432 10425 10424 10420 10414 10407 10395 10387 10385 10384 10383 10383 10378 10370 10363 10357 10355 10354 10351 10348 10344 10338 10333 10328 10323 10318 10313 10308 10299 10289 10284 10282 10278 10271 10264 10257 10250
10608 10606 10603 10600 10597 10594 10591 10588 10584 10581 10578 10574 10571 10568 10564 10561 10557 10554 10550 10547 10543 10539 10534 10531 10526 10522 10519 10515 10510 10506 10502 10497 10493 10489 10484 10480 10476 10472 10468 10464 10460 10457 10454 10451 10449 10446 10442 10440 10438 10435 10434 10429 10422 10420 10417 10411 10403 10391 10382 10381 10381 10379 10377 10373 10365 10356 10349 10346 10346 10345 10340 10333 10329 10326 10321 10317 10312 10305 10299 10290 10277 10273 10275 10271 10262 10254 10247 10241